"Pseudo-MPEC" for P10OMYG

Created 2019 Jun 19 16:07:35 UT using Find_Orb

Click here for an explanation of pseudo-MPECs

 
 Astrometry: 
     P10OMYG  C2019 06 05(4fUS=JAY-1/0$uRK)o*n!b+N_vc\d)\s6SDW2+huexT`*%CS/8UF51
     P10OMYG  C2019 06 07rw)1QYt4C#Jq9$;Jj9fek@%PyI)b;^48AEj?Xxv(oi`d:Q-q]RkbF51
     P10OMYG  C2019 06 07(D12,AstrometryLpu?8@cl:Ajj#9ZdWt;u[fX3Wredacted;u!,F51
     P10OMYG  C2019 06 07Na3D\,6Wo)qjM;mgu1DIt*lRIM4$4bf!`aQYV4*aFG(uY'y_!),-F51
     P10OMYG pC2019 06 07!/5i4#QT$lVeC6u1tOr@vUpU\oo]x!DT0YCx\clickOR:u/Yy.)sL01
     P10OMYG KC2019 06 07]!nZVdilY^O19N?$-=Dl/8grr_qZhDClxTVAFiZPUs$tQe7T/]=$L01
     P10OMYG |C2019 06 085tc`T+^L)Q$]-F)Q3,S7+#r9fUVhZEw+K]iwf@VI(,Y\@ei1Eth=807
     P10OMYG |C2019 06 08g/MCwahn^M?A=p-7L0?(qRkq.=\E4JT;m+6yac\ZiDr;.kD%DJ;J807
     P10OMYG |C2019 06 08M2-L!W$1?n1Z2)plr:h#02(T(SISZ\``]qfSOQrD,VF#rqA`t+LW807
     P10OMYG  C2019 06 08.21081 14 56 15.81 -10 34 21.6    ~691b 20.9 GVNEOCPI52
     P10OMYG  C2019 06 08.21206 14 56 15.94 -10 34 15.7    ~691b 20.0 GVNEOCPI52
     P10OMYG  C2019 06 08.21330 14 56 16.16 -10 34 09.7    ~691b 20.8 GVNEOCPI52
     P10OMYG  C2019 06 08.21455 14 56 16.32 -10 34 03.3    ~691b 21.6 GVNEOCPI52
     P10OMYG  C2019 06 09.21501 14 58 57.31 -09 27 11.2    ~695q       VNEOCPI52
     P10OMYG  C2019 06 09.21833 14 58 57.70 -09 26 59.5    ~695q       VNEOCPI52
     P10OMYG KC2019 06 099Udb.xxhereH^5sJiHUalrHr%YjvTQK_#(RXl:@jmBN(;Rqd-30Y691
     P10OMYG  C2019 06 09.22166 14 58 58.14 -09 26 47.8    ~695q 21.2 GVNEOCPI52
     P10OMYG  C2019 06 09.22499 14 58 58.57 -09 26 34.8    ~695q 20.8 GVNEOCPI52
     P10OMYG KC2019 06 09[gQ`FB6sa9Pik/5_)YRLa[gmR+Uep47@`]bw758Pe\uNqZX+3*FH691
     P10OMYG ^C2019 06 12q:Wo@M]@d#[!?2lTJBt,qHXQc0cf\#A9La@d[^gp9fora(+;-'59695
     P10OMYG ^C2019 06 12x8KOhn)RZeU!X\xFR6explanationgON_ZDla3__K1hjS6M+K8;J695
     P10OMYG ^C2019 06 12wCwO8dQg96!]\bpv!vaC@:ZmF+_;1/l.1i7I-ijFYk]p-.l.*SQ$695

Station data:
(691) Steward Observatory, Kitt Peak - Spacewatch  (N31.962174 W111.600327)
   US/Arizona.  Observer J. V. Scotti. 0.9-m f/3 reflector + CCD.
(695) Kitt Peak  (N31.958398 W111.594670)  US/Arizona.
(807) Cerro Tololo Observatory, La Serena  (S30.169136 W70.805900)  Chile.
(F51) Pan-STARRS 1, Haleakala  (N20.707235 W156.255910)  US/Hawaii.
   Observers N. Primak, A. Schultz, S. Watters, J. Thiel, T. Goggia. Measurer
   PS1 Science Consortium. 1.8-m Ritchey-Chrétien + CCD.
(I52) Steward Observatory, Mt. Lemmon Station  (N32.442547 W110.788920)
   US/Arizona.  Observers T. A. Pruyne, B. M. Africano, E. J. Christensen, G.
   A. Farneth, D. C. Fuls, A. R. Gibbs, A. D. Grauer, H. Groeller, J. A.
   Johnson, R. A. Kowalski, S. M. Larson, G. J. Leonard, R. L. Seaman, F. C.
   Shelly. 1.0-m reflector + CCD.
(L01) Višnjan Observatory, Tičan  (N45.290900 E13.749300)  Croatia.
   Observers K. Korlević, E. Pettarin. Measurer E. Pettarin. 1.0-m f/2.9
   reflector + CCD.

Orbital elements:  P10OMYG
   Perihelion 2019 Apr 16.943817 +/- 0.0754 TT = 22:39:05 (JD 2458590.443817)
Epoch 2019 Jun 12.0 TT = JDT 2458646.5   Earth MOID: 0.0218   Me: 0.0142
M  34.33086889 +/- 0.27             (J2000 ecliptic)          AutoNEOCP
n   0.61243679 +/- 0.00412          Peri.  226.73968 +/- 0.018
a   1.37328876 +/- 0.00617          Node   252.16512 +/- 0.0052
e   0.8032809 +/- 0.00129           Incl.   25.99077 +/- 0.09
P   1.61/587.80d           H 24.3   G  0.15   U  9.1  
q 0.27015204 +/- 0.000567    Q 2.47642548 +/- 0.013
From 22 observations 2019 June 5-12; mean residual 0".38
Residuals in arcseconds: 
190605 F51  .06-  .02-    190608 807  .28+  .01-    190609 I52  .13-  .46-    
190607 F51  .08+  .12+    190608 I52  .36+  .44-    190609 I52  .29+  .85+    
190607 F51  .17+  .27+    190608 I52  .60-  .25-    190609 691  .26+  .04-    
190607 F51  .24+  .25+    190608 I52  .21-  .08+    190612 695  .10-  .04+    
190607 L01  .29+  .78-    190608 I52  .72-  .76+    190612 695  .13-  .03+    
190607 L01  .38-  .14+    190609 I52  .54-  .49-    190612 695  .11+  .13+    
190608 807  .28-  .18+    190609 I52  .70-  .46-    
190608 807  .11+  .00     190609 691  .77+  .10+    

Ephemerides (geocentric):
Date (UTC) HH   RA              Dec         delta   r     elong  mag " sig PA
---- -- -- --  -------------   -----------  ------ ------ -----  --- ---- ---
2019 06 19 16  15 11 56.084   -05 15 11.69  .32396 1.2746 137.7 23.7 1.54 116
2019 06 19 17  15 11 58.054   -05 14 50.98  .32471 1.2751 137.7 23.7 1.55 116
2019 06 19 18  15 12 00.020   -05 14 30.41  .32545 1.2756 137.7 23.7 1.56 116
2019 06 19 19  15 12 01.984   -05 14 09.98  .32619 1.2761 137.6 23.7 1.58 116
2019 06 19 20  15 12 03.945   -05 13 49.69  .32693 1.2767 137.6 23.7 1.59 116
2019 06 19 21  15 12 05.903   -05 13 29.55  .32767 1.2772 137.6 23.7 1.60 116
2019 06 19 22  15 12 07.858   -05 13 09.55  .32841 1.2777 137.5 23.7 1.61 116
2019 06 19 23  15 12 09.810   -05 12 49.69  .32915 1.2782 137.5 23.7 1.62 116
2019 06 20 00  15 12 11.759   -05 12 29.97  .32990 1.2788 137.5 23.8 1.63 116
2019 06 20 01  15 12 13.706   -05 12 10.39  .33064 1.2793 137.4 23.8 1.64 116
2019 06 20 02  15 12 15.649   -05 11 50.95  .33138 1.2798 137.4 23.8 1.65 116
2019 06 20 03  15 12 17.590   -05 11 31.64  .33212 1.2804 137.4 23.8 1.67 116
2019 06 20 04  15 12 19.529   -05 11 12.47  .33287 1.2809 137.3 23.8 1.68 116
2019 06 20 05  15 12 21.464   -05 10 53.44  .33361 1.2814 137.3 23.8 1.69 116
2019 06 20 06  15 12 23.398   -05 10 34.54  .33435 1.2819 137.3 23.8 1.70 116
2019 06 20 07  15 12 25.328   -05 10 15.78  .33509 1.2824 137.2 23.8 1.71 116
2019 06 20 08  15 12 27.256   -05 09 57.14  .33584 1.2830 137.2 23.8 1.72 116
2019 06 20 09  15 12 29.181   -05 09 38.64  .33658 1.2835 137.2 23.8 1.73 116
2019 06 20 10  15 12 31.104   -05 09 20.28  .33732 1.2840 137.1 23.8 1.75 116
2019 06 20 11  15 12 33.024   -05 09 02.04  .33806 1.2845 137.1 23.8 1.76 116
2019 06 20 12  15 12 34.942   -05 08 43.93  .33881 1.2851 137.1 23.8 1.77 116
2019 06 20 13  15 12 36.857   -05 08 25.96  .33955 1.2856 137.0 23.8 1.78 116
2019 06 20 14  15 12 38.770   -05 08 08.11  .34030 1.2861 137.0 23.8 1.79 116
2019 06 20 15  15 12 40.681   -05 07 50.39  .34104 1.2866 137.0 23.8 1.80 116
2019 06 20 16  15 12 42.589   -05 07 32.79  .34178 1.2872 136.9 23.8 1.82 116
2019 06 20 17  15 12 44.495   -05 07 15.32  .34253 1.2877 136.9 23.9 1.83 117
2019 06 20 18  15 12 46.398   -05 06 57.98  .34327 1.2882 136.9 23.9 1.84 117
2019 06 20 19  15 12 48.300   -05 06 40.77  .34401 1.2887 136.8 23.9 1.85 117
2019 06 20 20  15 12 50.199   -05 06 23.67  .34476 1.2892 136.8 23.9 1.86 117
2019 06 20 21  15 12 52.095   -05 06 06.70  .34550 1.2898 136.8 23.9 1.88 117
2019 06 20 22  15 12 53.990   -05 05 49.86  .34625 1.2903 136.7 23.9 1.89 117
2019 06 20 23  15 12 55.882   -05 05 33.13  .34699 1.2908 136.7 23.9 1.90 117
2019 06 21 00  15 12 57.772   -05 05 16.53  .34774 1.2913 136.7 23.9 1.91 117
2019 06 21 01  15 12 59.660   -05 05 00.04  .34848 1.2919 136.6 23.9 1.93 117
2019 06 21 02  15 13 01.546   -05 04 43.68  .34923 1.2924 136.6 23.9 1.94 117
2019 06 21 03  15 13 03.430   -05 04 27.44  .34997 1.2929 136.6 23.9 1.95 117
2019 06 21 04  15 13 05.311   -05 04 11.31  .35072 1.2934 136.5 23.9 1.96 117
2019 06 21 05  15 13 07.191   -05 03 55.30  .35146 1.2939 136.5 23.9 1.97 117
2019 06 21 06  15 13 09.069   -05 03 39.41  .35221 1.2945 136.5 23.9 1.99 117
2019 06 21 07  15 13 10.944   -05 03 23.64  .35295 1.2950 136.4 23.9 2.00 117
2019 06 21 08  15 13 12.818   -05 03 07.98  .35370 1.2955 136.4 23.9 2.01 117
2019 06 21 09  15 13 14.690   -05 02 52.44  .35444 1.2960 136.4 23.9 2.02 117
2019 06 21 10  15 13 16.559   -05 02 37.01  .35519 1.2965 136.3 24.0 2.04 117
2019 06 21 11  15 13 18.427   -05 02 21.70  .35593 1.2971 136.3 24.0 2.05 117
2019 06 21 12  15 13 20.293   -05 02 06.50  .35668 1.2976 136.3 24.0 2.06 117
2019 06 21 13  15 13 22.157   -05 01 51.41  .35743 1.2981 136.2 24.0 2.07 117
2019 06 21 14  15 13 24.019   -05 01 36.44  .35817 1.2986 136.2 24.0 2.09 117
2019 06 21 15  15 13 25.879   -05 01 21.57  .35892 1.2991 136.2 24.0 2.10 117